Location: Amsterdam
(30.7274°N, 84.4357°W)
Time: 03:06:58
(UTC+00:00)

Altair - Pass Details

Date: 09 August 2024
Orbit: 1501 x 1682 km, 47.2° (Epoch: 07 September)

Event Time Altitude Azimuth Distance (km) Brightness Sun altitude
Rises 21:01:25 0° 292° (WNW) 4,819 10.8 42.4°
Reaches altitude 10° 21:05:14 10° 304° (NW) 3,804 10.3 41.6°
Maximum altitude 21:13:14 28° 1° (N) 2,579 8.9 39.8°
Drops below altitude 10° 21:21:00 10° 58° (ENE) 3,692 9.2 38.2°
Sets 21:24:39 0° 70° (ENE) 4,655 9.6 37.4°
